GALAXY 35 (G-35)

Last updated on Tue Oct 28 2025 00:02:52 GMT+0000 (Coordinated Universal Time)

1 54741U 22170A 25300.50985822 -.00000151 00000+0 00000+0 0 9998 2 54741 0.0187 147.8263 0001960 66.6733 272.0902 1.00271429 10567
UTC large
Height (km)
Speed (km/s)
/
Latitude / Longitude
Inclination (degrees)
Orbital Period (minutes)
Azimuth
Elevation
Range (km)
Doppler Factor

Next 0 passes for location: London (51.5072 / 0.1276)

Sorry there are no passes over London.